Time,TemperatureF,DewpointF,PressureIn,WindDirection,WindDirectionDegrees,WindSpeedMPH,WindSpeedGustMPH,Humidity,HourlyPrecipIn,Conditions,Clouds,dailyrainin,SolarRadiationWatts/m^2,SoftwareType,DateUTC
2013-03-11 00:00:00,40.8,27.6,30.06,SE,124,2.0,2.0,59,0.00,OVC,,0.00,0.0,WeatherDisplay:10.37,2013-03-11 04:00:00,
2013-03-11 00:05:00,40.6,27.8,30.06,SE,124,2.3,2.3,60,0.00,OVC,,0.00,0.0,WeatherDisplay:10.37,2013-03-11 04:05:00,
2013-03-11 00:10:00,40.3,27.5,30.06,SE,142,3.5,3.5,60,0.00,OVC,,0.00,0.0,WeatherDisplay:10.37,2013-03-11 04:10:00,
2013-03-11 00:15:00,40.1,27.3,30.06,SE,143,2.3,2.3,60,0.00,OVC,,0.00,0.0,WeatherDisplay:10.37,2013-03-11 04:15:00,
2013-03-11 00:20:00,40.0,27.6,30.06,SE,143,0.0,0.0,61,0.00,BKN,,0.00,0.0,WeatherDisplay:10.37,2013-03-11 04:20:00,
2013-03-11 00:25:00,39.8,27.8,30.06,SE,143,1.0,0.0,62,0.00,BKN,,0.00,0.0,WeatherDisplay:10.37,2013-03-11 04:25:00,
2013-03-11 00:30:00,39.7,27.7,30.06,SSE,161,3.5,0.0,62,0.00,BKN,,0.00,0.0,WeatherDisplay:10.37,2013-03-11 04:30:00,
2013-03-11 00:35:00,39.5,27.9,30.05,SSE,149,4.6,4.6,63,0.00,BKN,,0.00,0.0,WeatherDisplay:10.37,2013-03-11 04:35:00,
2013-03-11 00:40:00,39.3,27.7,30.05,SE,139,4.0,4.0,63,0.00,BKN,,0.00,0.0,WeatherDisplay:10.37,2013-03-11 04:40:00,
2013-03-11 00:45:00,39.2,28.0,30.04,SE,133,2.0,6.0,64,0.00,BKN,,0.00,0.0,WeatherDisplay:10.37,2013-03-11 04:45:00,
2013-03-11 00:50:00,39.2,27.7,30.04,ESE,107,5.0,5.0,63,0.00,BKN,,0.00,0.0,WeatherDisplay:10.37,2013-03-11 04:50:00,
2013-03-11 00:55:00,39.4,27.4,30.03,SE,124,8.0,12.0,62,0.00,BKN,,0.00,0.0,WeatherDisplay:10.37,2013-03-11 04:55:00,
2013-03-11 01:00:00,40.0,27.6,30.03,ESE,121,6.9,6.9,61,0.00,BKN,,0.00,0.0,WeatherDisplay:10.37,2013-03-11 05:00:00,
2013-03-11 01:05:00,40.2,28.2,30.02,SE,142,8.1,8.1,62,0.00,BKN,,0.00,0.0,WeatherDisplay:10.37,2013-03-11 05:05:00,
2013-03-11 01:10:00,40.0,28.4,30.02,East,94,6.9,6.9,63,0.00,BKN,,0.00,0.0,WeatherDisplay:10.37,2013-03-11 05:10:00,
2013-03-11 01:15:00,39.3,28.5,30.01,SE,130,9.2,9.2,65,0.00,BKN,,0.00,0.0,WeatherDisplay:10.37,2013-03-11 05:15:00,
2013-03-11 01:20:00,38.9,28.5,30.01,ESE,119,8.0,8.0,66,0.00,OVC,,0.00,0.0,WeatherDisplay:10.37,2013-03-11 05:20:00,
2013-03-11 01:25:00,38.9,28.9,30.01,ESE,123,6.9,6.9,67,0.00,OVC,,0.00,0.0,WeatherDisplay:10.37,2013-03-11 05:25:00,
2013-03-11 01:30:00,38.8,28.8,30.01,SE,127,8.1,8.1,67,0.00,OVC,,0.00,0.0,WeatherDisplay:10.37,2013-03-11 05:30:00,
2013-03-11 01:35:00,38.8,29.1,30.01,ESE,115,6.9,6.9,68,0.00,OVC,,0.00,0.0,WeatherDisplay:10.37,2013-03-11 05:35:00,
2013-03-11 01:40:00,38.8,28.8,30.01,ESE,121,6.0,6.0,67,0.00,OVC,,0.00,0.0,WeatherDisplay:10.37,2013-03-11 05:40:00,
2013-03-11 01:45:00,38.8,28.8,30.01,ESE,119,7.0,7.0,67,0.00,OVC,,0.00,0.0,WeatherDisplay:10.37,2013-03-11 05:45:00,
2013-03-11 01:50:00,38.9,28.9,30.02,SE,129,2.0,7.0,67,0.00,OVC,,0.00,0.0,WeatherDisplay:10.37,2013-03-11 05:50:00,
2013-03-11 01:55:00,39.2,28.8,30.03,SE,127,5.0,8.0,66,0.00,OVC,,0.00,0.0,WeatherDisplay:10.37,2013-03-11 05:55:00,
2013-03-11 02:00:00,39.5,29.1,30.03,ESE,107,1.2,0.0,66,0.00,OVC,,0.00,0.0,WeatherDisplay:10.37,2013-03-11 06:00:00,
2013-03-11 02:05:00,39.7,28.9,30.03,ESE,107,0.0,0.0,65,0.00,OVC,,0.00,0.0,WeatherDisplay:10.37,2013-03-11 06:05:00,
2013-03-11 02:10:00,39.8,29.0,30.03,ESE,107,0.0,0.0,65,0.00,OVC,,0.00,0.0,WeatherDisplay:10.37,2013-03-11 06:10:00,
2013-03-11 02:15:00,39.7,28.9,30.03,ESE,107,0.0,0.0,65,0.00,OVC,,0.00,0.0,WeatherDisplay:10.37,2013-03-11 06:15:00,
2013-03-11 02:20:00,39.6,28.8,30.03,ESE,107,1.2,0.0,65,0.00,OVC,,0.00,0.0,WeatherDisplay:10.37,2013-03-11 06:20:00,
2013-03-11 02:25:00,39.5,29.1,30.03,ESE,107,0.0,1.0,66,0.00,OVC,,0.00,0.0,WeatherDisplay:10.37,2013-03-11 06:25:00,
2013-03-11 02:30:00,39.3,28.9,30.03,ESE,107,0.0,0.0,66,0.00,OVC,,0.00,0.0,WeatherDisplay:10.37,2013-03-11 06:30:00,
2013-03-11 02:35:00,39.1,28.7,30.02,ESE,107,1.0,2.0,66,0.00,OVC,,0.00,0.0,WeatherDisplay:10.37,2013-03-11 06:35:00,
2013-03-11 02:40:00,38.8,28.8,30.02,ESE,107,0.0,0.0,67,0.00,OVC,,0.00,0.0,WeatherDisplay:10.37,2013-03-11 06:40:00,
2013-03-11 02:45:00,38.7,29.0,30.02,ESE,107,0.0,2.0,68,0.00,OVC,,0.00,0.0,WeatherDisplay:10.37,2013-03-11 06:45:00,
2013-03-11 02:50:00,38.4,29.1,30.02,ESE,107,0.0,0.0,69,0.00,OVC,,0.00,0.0,WeatherDisplay:10.37,2013-03-11 06:50:00,
2013-03-11 02:55:00,38.2,28.9,30.02,ESE,107,0.0,2.0,69,0.00,OVC,,0.00,0.0,WeatherDisplay:10.37,2013-03-11 06:55:00,
2013-03-11 03:00:00,37.9,29.0,30.02,ESE,107,0.0,0.0,70,0.00,OVC,,0.00,0.0,WeatherDisplay:10.37,2013-03-11 07:00:00,
2013-03-11 03:05:00,37.5,29.0,30.02,East,99,2.0,4.0,71,0.00,OVC,,0.00,0.0,WeatherDisplay:10.37,2013-03-11 07:05:00,
2013-03-11 03:10:00,37.2,29.0,30.02,East,92,2.3,2.3,72,0.00,OVC,,0.00,0.0,WeatherDisplay:10.37,2013-03-11 07:10:00,
2013-03-11 03:15:00,36.8,28.6,30.02,East,92,2.3,2.3,72,0.00,OVC,,0.00,0.0,WeatherDisplay:10.37,2013-03-11 07:15:00,
2013-03-11 03:28:00,36.5,28.7,30.03,North,360,2.3,2.3,73,0.00,FEW,,0.00,0.0,WeatherDisplay:10.37,2013-03-11 07:28:00,
2013-03-11 03:33:00,36.4,28.6,30.03,North,360,3.0,3.0,73,0.00,FEW,,0.00,0.0,WeatherDisplay:10.37,2013-03-11 07:33:00,
2013-03-11 03:38:00,36.3,28.5,30.02,North,360,1.2,1.2,73,0.00,FEW,,0.00,0.0,WeatherDisplay:10.37,2013-03-11 07:38:00,
2013-03-11 03:43:00,36.4,28.6,30.02,North,360,3.0,3.0,73,0.00,FEW,,0.00,0.0,WeatherDisplay:10.37,2013-03-11 07:43:00,
2013-03-11 03:48:00,36.3,28.5,30.02,North,360,1.0,1.0,73,0.00,FEW,,0.00,0.0,WeatherDisplay:10.37,2013-03-11 07:48:00,
2013-03-11 03:53:00,36.2,28.4,30.02,North,360,0.0,0.0,73,0.00,FEW,,0.00,0.0,WeatherDisplay:10.37,2013-03-11 07:53:00,
2013-03-11 03:58:00,36.1,28.6,30.02,North,360,2.3,2.3,74,0.00,FEW,,0.00,0.0,WeatherDisplay:10.37,2013-03-11 07:58:00,
2013-03-11 04:03:00,36.0,28.5,30.02,North,360,2.3,2.3,74,0.00,FEW,,0.00,0.0,WeatherDisplay:10.37,2013-03-11 08:03:00,
2013-03-11 04:08:00,35.9,28.7,30.02,North,360,2.3,2.3,75,0.00,FEW,,0.00,0.0,WeatherDisplay:10.37,2013-03-11 08:08:00,
2013-03-11 04:13:00,35.7,28.6,30.02,North,360,2.3,2.3,75,0.00,FEW,,0.00,0.0,WeatherDisplay:10.37,2013-03-11 08:13:00,
2013-03-11 04:18:00,35.6,28.5,30.02,North,360,2.3,2.3,75,0.00,OVC,,0.00,0.0,WeatherDisplay:10.37,2013-03-11 08:18:00,
2013-03-11 04:23:00,35.3,28.5,30.02,North,360,3.5,3.5,76,0.00,OVC,,0.00,0.0,WeatherDisplay:10.37,2013-03-11 08:23:00,
2013-03-11 04:28:00,35.2,28.4,30.03,North,360,0.0,0.0,76,0.00,OVC,,0.00,0.0,WeatherDisplay:10.37,2013-03-11 08:28:00,
2013-03-11 04:33:00,35.1,28.6,30.02,North,360,0.0,0.0,77,0.00,OVC,,0.00,0.0,WeatherDisplay:10.37,2013-03-11 08:33:00,
2013-03-11 04:38:00,35.1,28.6,30.02,North,360,0.0,0.0,77,0.00,OVC,,0.00,0.0,WeatherDisplay:10.37,2013-03-11 08:38:00,
2013-03-11 04:43:00,35.1,28.6,30.02,North,5,2.3,2.3,77,0.00,OVC,,0.00,0.0,WeatherDisplay:10.37,2013-03-11 08:43:00,
2013-03-11 04:48:00,35.2,29.0,30.03,North,5,1.0,1.0,78,0.00,OVC,,0.00,0.0,WeatherDisplay:10.37,2013-03-11 08:48:00,
2013-03-11 04:53:00,35.2,29.0,30.03,North,5,2.3,2.3,78,0.00,OVC,,0.00,0.0,WeatherDisplay:10.37,2013-03-11 08:53:00,
2013-03-11 04:58:00,35.2,29.0,30.04,North,5,2.3,2.3,78,0.00,OVC,,0.00,0.0,WeatherDisplay:10.37,2013-03-11 08:58:00,
2013-03-11 05:03:00,35.2,29.0,30.04,North,5,1.2,1.2,78,0.00,OVC,,0.00,0.0,WeatherDisplay:10.37,2013-03-11 09:03:00,
2013-03-11 05:08:00,35.2,29.0,30.04,North,5,2.3,0.0,78,0.00,OVC,,0.00,0.0,WeatherDisplay:10.37,2013-03-11 09:08:00,
2013-03-11 05:13:00,35.1,28.9,30.04,North,5,0.0,0.0,78,0.00,OVC,,0.00,0.0,WeatherDisplay:10.37,2013-03-11 09:13:00,
2013-03-11 05:18:00,35.0,29.1,30.04,North,5,1.2,1.2,79,0.00,OVC,,0.00,0.0,WeatherDisplay:10.37,2013-03-11 09:18:00,
2013-03-11 05:23:00,34.9,29.0,30.05,North,5,2.3,2.3,79,0.00,OVC,,0.00,0.0,WeatherDisplay:10.37,2013-03-11 09:23:00,
2013-03-11 05:28:00,34.8,29.0,30.04,North,5,0.0,0.0,79,0.00,OVC,,0.00,0.0,WeatherDisplay:10.37,2013-03-11 09:28:00,
2013-03-11 05:33:00,34.8,29.0,30.04,North,5,0.0,0.0,79,0.00,OVC,,0.00,0.0,WeatherDisplay:10.37,2013-03-11 09:33:00,
2013-03-11 05:38:00,34.7,28.9,30.04,North,5,0.0,0.0,79,0.00,OVC,,0.00,0.0,WeatherDisplay:10.37,2013-03-11 09:38:00,
2013-03-11 05:43:00,34.6,28.8,30.04,North,5,0.0,0.0,79,0.00,OVC,,0.00,0.0,WeatherDisplay:10.37,2013-03-11 09:43:00,
2013-03-11 05:48:00,34.6,28.8,30.04,North,5,2.3,2.3,79,0.00,OVC,,0.00,0.0,WeatherDisplay:10.37,2013-03-11 09:48:00,
2013-03-11 05:53:00,34.6,28.8,30.03,North,9,3.5,3.5,79,0.00,OVC,,0.00,0.0,WeatherDisplay:10.37,2013-03-11 09:53:00,
2013-03-11 05:58:00,34.6,29.1,30.03,North,9,2.3,2.3,80,0.00,OVC,,0.00,0.0,WeatherDisplay:10.37,2013-03-11 09:58:00,
2013-03-11 06:03:00,34.7,29.2,30.03,NNE,16,2.3,2.3,80,0.00,OVC,,0.00,0.0,WeatherDisplay:10.37,2013-03-11 10:03:00,
2013-03-11 06:08:00,34.8,29.3,30.03,ENE,76,3.5,3.5,80,0.00,OVC,,0.00,0.0,WeatherDisplay:10.37,2013-03-11 10:08:00,
2013-03-11 06:13:00,34.9,29.0,30.02,East,93,4.0,4.0,79,0.00,OVC,,0.00,0.0,WeatherDisplay:10.37,2013-03-11 10:13:00,
2013-03-11 06:18:00,35.0,29.1,30.03,ESE,104,3.5,3.5,79,0.00,OVC,,0.00,0.0,WeatherDisplay:10.37,2013-03-11 10:18:00,
2013-03-11 06:23:00,35.3,29.4,30.02,ESE,103,5.8,5.8,79,0.00,OVC,,0.00,0.0,WeatherDisplay:10.37,2013-03-11 10:23:00,
2013-03-11 06:28:00,35.6,29.4,30.02,East,100,5.0,5.0,78,0.00,OVC,,0.00,0.0,WeatherDisplay:10.37,2013-03-11 10:28:00,
2013-03-11 06:33:00,35.9,29.7,30.02,ESE,106,5.8,5.8,78,0.00,OVC,,0.00,0.0,WeatherDisplay:10.37,2013-03-11 10:33:00,
2013-03-11 06:38:00,36.0,29.5,30.02,East,92,3.5,3.5,77,0.00,OVC,,0.00,0.0,WeatherDisplay:10.37,2013-03-11 10:38:00,
2013-03-11 06:43:00,36.2,29.7,30.02,ESE,103,5.0,5.0,77,0.00,OVC,,0.00,0.0,WeatherDisplay:10.37,2013-03-11 10:43:00,
2013-03-11 06:48:00,36.5,30.0,30.02,East,95,5.8,5.8,77,0.00,OVC,,0.00,0.0,WeatherDisplay:10.37,2013-03-11 10:48:00,
2013-03-11 06:53:00,36.7,29.8,30.02,East,92,5.8,5.8,76,0.00,OVC,,0.00,0.0,WeatherDisplay:10.37,2013-03-11 10:53:00,
2013-03-11 06:58:00,37.0,30.1,30.01,East,94,5.0,5.0,76,0.00,OVC,,0.00,0.0,WeatherDisplay:10.37,2013-03-11 10:58:00,
2013-03-11 07:03:00,37.1,29.9,30.01,East,90,4.6,4.6,75,0.00,OVC,,0.00,0.0,WeatherDisplay:10.37,2013-03-11 11:03:00,
2013-03-11 07:08:00,37.2,30.0,30.01,East,89,4.6,4.6,75,0.00,OVC,,0.00,0.0,WeatherDisplay:10.37,2013-03-11 11:08:00,
2013-03-11 07:13:00,37.2,30.0,30.00,East,88,3.5,3.5,75,0.00,OVC,,0.00,0.0,WeatherDisplay:10.37,2013-03-11 11:13:00,
2013-03-11 07:18:00,37.4,30.2,30.00,East,80,4.0,4.0,75,0.00,OVC,,0.00,0.0,WeatherDisplay:10.37,2013-03-11 11:18:00,
2013-03-11 07:23:00,37.6,30.4,30.00,ENE,74,6.9,6.9,75,0.00,OVC,,0.00,0.0,WeatherDisplay:10.37,2013-03-11 11:23:00,
2013-03-11 07:28:00,37.7,30.5,30.01,East,88,4.6,4.6,75,0.00,OVC,,0.00,7.0,WeatherDisplay:10.37,2013-03-11 11:28:00,
2013-03-11 07:33:00,37.7,30.5,30.00,East,94,5.8,5.8,75,0.00,OVC,,0.00,12.0,WeatherDisplay:10.37,2013-03-11 11:33:00,
2013-03-11 07:38:00,37.8,30.6,30.01,ESE,113,7.0,7.0,75,0.00,OVC,,0.00,18.0,WeatherDisplay:10.37,2013-03-11 11:38:00,
2013-03-11 07:43:00,37.9,30.7,30.01,East,95,2.3,2.3,75,0.00,OVC,,0.00,32.0,WeatherDisplay:10.37,2013-03-11 11:43:00,
2013-03-11 07:48:00,37.9,30.7,30.01,East,94,4.0,4.0,75,0.00,OVC,,0.00,44.0,WeatherDisplay:10.37,2013-03-11 11:48:00,
2013-03-11 07:53:00,38.0,30.8,30.01,East,89,3.5,3.5,75,0.00,OVC,,0.00,47.0,WeatherDisplay:10.37,2013-03-11 11:53:00,
2013-03-11 07:58:00,38.2,30.6,30.01,East,89,0.0,0.0,74,0.00,OVC,,0.00,49.0,WeatherDisplay:10.37,2013-03-11 11:58:00,
2013-03-11 08:03:00,38.3,30.7,30.01,East,89,1.2,1.2,74,0.00,OVC,,0.00,49.0,WeatherDisplay:10.37,2013-03-11 12:03:00,
2013-03-11 08:08:00,38.5,30.9,30.01,East,89,2.3,2.3,74,0.00,OVC,,0.00,60.0,WeatherDisplay:10.37,2013-03-11 12:08:00,
2013-03-11 08:13:00,38.6,31.0,30.01,East,89,2.3,2.3,74,0.00,OVC,,0.00,65.0,WeatherDisplay:10.37,2013-03-11 12:13:00,
2013-03-11 08:18:00,38.7,31.1,30.01,East,89,1.0,0.0,74,0.00,OVC,,0.00,54.0,WeatherDisplay:10.37,2013-03-11 12:18:00,
2013-03-11 08:23:00,38.8,31.2,30.01,East,93,4.6,4.6,74,0.00,OVC,,0.00,63.0,WeatherDisplay:10.37,2013-03-11 12:23:00,
2013-03-11 08:28:00,38.8,31.2,30.01,East,92,3.5,3.5,74,0.00,OVC,,0.00,72.0,WeatherDisplay:10.37,2013-03-11 12:28:00,
2013-03-11 08:33:00,38.8,31.2,30.01,East,84,4.6,4.6,74,0.00,OVC,,0.00,83.0,WeatherDisplay:10.37,2013-03-11 12:33:00,
2013-03-11 08:38:00,38.8,31.2,30.00,East,88,4.6,4.6,74,0.00,OVC,,0.00,83.0,WeatherDisplay:10.37,2013-03-11 12:38:00,
2013-03-11 08:44:00,38.9,31.3,29.99,East,80,5.8,5.8,74,0.00,OVC,,0.00,83.0,WeatherDisplay:10.37,2013-03-11 12:44:00,
2013-03-11 08:49:00,39.1,31.5,29.99,ESE,103,8.1,8.1,74,0.00,OVC,,0.00,95.0,WeatherDisplay:10.37,2013-03-11 12:49:00,
2013-03-11 08:54:00,39.2,31.6,29.99,East,94,6.9,6.9,74,0.00,OVC,,0.00,118.0,WeatherDisplay:10.37,2013-03-11 12:54:00,
2013-03-11 08:59:00,39.5,31.6,30.00,East,93,6.9,6.9,73,0.00,OVC,,0.00,134.0,WeatherDisplay:10.37,2013-03-11 12:59:00,
2013-03-11 09:04:00,39.7,31.8,30.00,East,94,8.1,8.1,73,0.00,OVC,,0.00,137.0,WeatherDisplay:10.37,2013-03-11 13:04:00,
2013-03-11 09:09:00,39.8,31.5,29.99,ESE,106,8.1,8.1,72,0.00,OVC,,0.00,125.0,WeatherDisplay:10.37,2013-03-11 13:09:00,
2013-03-11 09:14:00,40.0,31.7,29.98,East,98,6.9,6.9,72,0.00,OVC,,0.00,127.0,WeatherDisplay:10.37,2013-03-11 13:14:00,
2013-03-11 09:19:00,40.1,31.8,29.97,ENE,75,6.0,6.0,72,0.00,OVC,,0.00,141.0,WeatherDisplay:10.37,2013-03-11 13:19:00,
2013-03-11 09:24:00,40.4,31.7,29.99,East,90,6.9,6.9,71,0.00,OVC,,0.00,162.0,WeatherDisplay:10.37,2013-03-11 13:24:00,
2013-03-11 09:29:00,40.6,31.9,30.01,East,90,2.3,2.3,71,0.00,OVC,,0.00,186.0,WeatherDisplay:10.37,2013-03-11 13:29:00,
2013-03-11 09:34:00,40.8,32.1,30.01,East,90,0.0,0.0,71,0.00,OVC,,0.00,213.0,WeatherDisplay:10.37,2013-03-11 13:34:00,
2013-03-11 09:39:00,41.2,32.5,30.01,East,90,4.0,4.0,71,0.00,OVC,,0.00,214.0,WeatherDisplay:10.37,2013-03-11 13:39:00,
2013-03-11 09:44:00,41.6,32.5,30.01,East,87,3.5,3.5,70,0.00,OVC,,0.00,220.0,WeatherDisplay:10.37,2013-03-11 13:44:00,
2013-03-11 09:49:00,41.9,32.5,30.01,East,87,3.5,3.5,69,0.00,OVC,,0.00,221.0,WeatherDisplay:10.37,2013-03-11 13:49:00,
2013-03-11 09:54:00,42.3,32.5,30.01,East,86,3.5,3.5,68,0.00,OVC,,0.00,225.0,WeatherDisplay:10.37,2013-03-11 13:54:00,
2013-03-11 09:59:00,42.6,32.4,30.01,East,91,4.6,4.6,67,0.00,OVC,,0.00,195.0,WeatherDisplay:10.37,2013-03-11 13:59:00,
2013-03-11 10:04:00,42.7,32.5,30.01,East,95,1.2,0.0,67,0.00,OVC,,0.00,190.0,WeatherDisplay:10.37,2013-03-11 14:04:00,
2013-03-11 10:09:00,42.7,32.5,30.01,East,89,2.3,2.3,67,0.00,OVC,,0.00,192.0,WeatherDisplay:10.37,2013-03-11 14:09:00,
2013-03-11 10:14:00,42.7,32.5,30.00,East,81,2.3,0.0,67,0.00,OVC,,0.00,207.0,WeatherDisplay:10.37,2013-03-11 14:14:00,
2013-03-11 10:19:00,42.8,32.6,30.01,East,81,0.0,0.0,67,0.00,OVC,,0.00,218.0,WeatherDisplay:10.37,2013-03-11 14:19:00,
2013-03-11 10:24:00,42.9,32.7,30.00,East,80,3.0,3.0,67,0.00,OVC,,0.00,230.0,WeatherDisplay:10.37,2013-03-11 14:24:00,
2013-03-11 10:29:00,43.2,32.6,30.00,East,80,3.5,3.5,66,0.00,OVC,,0.00,229.0,WeatherDisplay:10.37,2013-03-11 14:29:00,
2013-03-11 10:34:00,43.2,32.6,30.00,East,81,3.5,3.5,66,0.00,OVC,,0.00,223.0,WeatherDisplay:10.37,2013-03-11 14:34:00,
2013-03-11 10:39:00,43.0,32.4,30.01,East,91,6.0,6.0,66,0.00,OVC,,0.00,206.0,WeatherDisplay:10.37,2013-03-11 14:39:00,
2013-03-11 10:44:00,42.7,32.5,30.00,East,82,5.8,5.8,67,0.00,OVC,,0.00,190.0,WeatherDisplay:10.37,2013-03-11 14:44:00,
2013-03-11 10:49:00,42.5,32.3,30.00,East,85,3.5,3.5,67,0.00,OVC,,0.00,195.0,WeatherDisplay:10.37,2013-03-11 14:49:00,
2013-03-11 10:54:00,42.6,32.4,30.01,East,86,3.5,3.5,67,0.00,OVC,,0.00,202.0,WeatherDisplay:10.37,2013-03-11 14:54:00,
2013-03-11 10:59:00,42.7,32.5,30.01,East,88,3.5,3.5,67,0.00,OVC,,0.00,207.0,WeatherDisplay:10.37,2013-03-11 14:59:00,
2013-03-11 11:04:00,42.8,32.6,30.01,East,88,3.5,3.5,67,0.00,OVC,,0.00,218.0,WeatherDisplay:10.37,2013-03-11 15:04:00,
2013-03-11 11:09:00,43.0,32.4,30.00,East,88,3.5,3.5,66,0.00,OVC,,0.00,214.0,WeatherDisplay:10.37,2013-03-11 15:09:00,
2013-03-11 11:14:00,43.1,32.5,30.00,East,85,3.5,3.5,66,0.00,OVC,,0.00,213.0,WeatherDisplay:10.37,2013-03-11 15:14:00,
2013-03-11 11:19:00,43.2,32.6,30.00,East,85,3.5,3.5,66,0.00,OVC,,0.00,229.0,WeatherDisplay:10.37,2013-03-11 15:19:00,
2013-03-11 11:24:00,43.4,32.8,30.00,NE,47,5.8,5.8,66,0.00,OVC,,0.00,229.0,WeatherDisplay:10.37,2013-03-11 15:24:00,
2013-03-11 11:29:00,43.6,33.0,30.00,ENE,68,4.0,4.0,66,0.00,OVC,,0.00,197.0,WeatherDisplay:10.37,2013-03-11 15:29:00,
2013-03-11 11:34:00,43.7,32.7,30.00,ENE,63,3.5,3.5,65,0.00,OVC,,0.00,178.0,WeatherDisplay:10.37,2013-03-11 15:34:00,
2013-03-11 11:39:00,43.7,33.1,30.00,ENE,63,4.6,4.6,66,0.00,OVC,,0.00,190.0,WeatherDisplay:10.37,2013-03-11 15:39:00,
2013-03-11 11:44:00,43.8,33.2,29.99,East,89,4.6,4.6,66,0.00,OVC,,0.00,220.0,WeatherDisplay:10.37,2013-03-11 15:44:00,
2013-03-11 11:49:00,43.6,32.6,29.99,East,84,5.8,5.8,65,0.00,OVC,,0.00,236.0,WeatherDisplay:10.37,2013-03-11 15:49:00,
2013-03-11 11:55:00,43.4,32.8,29.99,East,92,8.1,8.1,66,0.00,OVC,,0.00,236.0,WeatherDisplay:10.37,2013-03-11 15:55:00,
2013-03-11 12:00:00,43.3,32.7,29.99,East,93,8.1,8.1,66,0.00,OVC,,0.00,236.0,WeatherDisplay:10.37,2013-03-11 16:00:00,
2013-03-11 12:05:00,43.2,32.6,29.99,East,79,8.1,8.1,66,0.00,OVC,,0.00,239.0,WeatherDisplay:10.37,2013-03-11 16:05:00,
2013-03-11 12:10:00,43.2,33.0,29.98,East,82,6.9,6.9,67,0.00,OVC,,0.00,246.0,WeatherDisplay:10.37,2013-03-11 16:10:00,
2013-03-11 12:15:00,43.2,32.6,29.98,ENE,76,8.1,8.1,66,0.00,OVC,,0.00,306.0,WeatherDisplay:10.37,2013-03-11 16:15:00,
2013-03-11 12:20:00,43.5,32.9,29.98,East,90,6.9,6.9,66,0.00,OVC,,0.00,392.0,WeatherDisplay:10.37,2013-03-11 16:20:00,
2013-03-11 12:25:00,43.9,33.3,29.99,East,95,6.0,6.0,66,0.00,OVC,,0.00,350.0,WeatherDisplay:10.37,2013-03-11 16:25:00,
2013-03-11 12:30:00,44.1,33.1,29.99,East,94,3.5,3.5,65,0.00,OVC,,0.00,269.0,WeatherDisplay:10.37,2013-03-11 16:30:00,
2013-03-11 12:35:00,44.2,33.2,29.98,East,96,6.9,6.9,65,0.00,OVC,,0.00,237.0,WeatherDisplay:10.37,2013-03-11 16:35:00,
2013-03-11 12:40:00,44.2,33.2,29.97,East,82,6.9,6.9,65,0.00,OVC,,0.00,239.0,WeatherDisplay:10.37,2013-03-11 16:40:00,
2013-03-11 12:45:00,44.1,33.1,29.98,ESE,102,5.8,5.8,65,0.00,OVC,,0.00,230.0,WeatherDisplay:10.37,2013-03-11 16:45:00,
2013-03-11 12:50:00,44.1,33.1,29.97,East,95,7.0,7.0,65,0.00,OVC,,0.00,264.0,WeatherDisplay:10.37,2013-03-11 16:50:00,
2013-03-11 12:55:00,44.1,33.1,29.98,ESE,117,6.0,6.0,65,0.00,OVC,,0.00,334.0,WeatherDisplay:10.37,2013-03-11 16:55:00,
2013-03-11 13:00:00,44.2,33.2,29.98,East,87,6.0,6.0,65,0.00,OVC,,0.00,369.0,WeatherDisplay:10.37,2013-03-11 17:00:00,
2013-03-11 13:05:00,44.5,33.1,29.98,East,92,4.6,4.6,64,0.00,OVC,,0.00,383.0,WeatherDisplay:10.37,2013-03-11 17:05:00,
2013-03-11 13:10:00,44.7,33.3,29.99,East,85,4.0,4.0,64,0.00,OVC,,0.00,396.0,WeatherDisplay:10.37,2013-03-11 17:10:00,
2013-03-11 13:15:00,44.9,33.1,29.99,East,92,5.8,5.8,63,0.00,OVC,,0.00,394.0,WeatherDisplay:10.37,2013-03-11 17:15:00,
2013-03-11 13:20:00,45.2,33.3,29.99,ENE,75,5.8,5.8,63,0.00,OVC,,0.00,378.0,WeatherDisplay:10.37,2013-03-11 17:20:00,
2013-03-11 13:25:00,45.6,33.3,29.99,ENE,78,3.5,3.5,62,0.00,OVC,,0.00,366.0,WeatherDisplay:10.37,2013-03-11 17:25:00,
2013-03-11 13:30:00,45.9,33.6,29.99,East,86,3.5,3.5,62,0.00,OVC,,0.00,345.0,WeatherDisplay:10.37,2013-03-11 17:30:00,
2013-03-11 13:35:00,46.0,33.3,29.99,East,98,5.0,6.0,61,0.00,OVC,,0.00,318.0,WeatherDisplay:10.37,2013-03-11 17:35:00,
2013-03-11 13:40:00,45.9,33.2,29.98,ENE,72,6.9,6.9,61,0.00,OVC,,0.00,306.0,WeatherDisplay:10.37,2013-03-11 17:40:00,
2013-03-11 13:45:00,45.8,33.5,29.98,East,88,4.6,4.6,62,0.00,OVC,,0.00,343.0,WeatherDisplay:10.37,2013-03-11 17:45:00,
2013-03-11 13:50:00,45.8,33.5,29.97,East,88,6.9,6.9,62,0.00,OVC,,0.00,327.0,WeatherDisplay:10.37,2013-03-11 17:50:00,
2013-03-11 13:55:00,45.8,33.1,29.97,East,98,9.2,9.2,61,0.00,OVC,,0.00,272.0,WeatherDisplay:10.37,2013-03-11 17:55:00,
2013-03-11 14:00:00,45.6,33.3,29.96,East,101,7.0,7.0,62,0.00,OVC,,0.00,253.0,WeatherDisplay:10.37,2013-03-11 18:00:00,
2013-03-11 14:05:00,45.4,33.5,29.95,ENE,75,8.1,8.1,63,0.00,OVC,,0.00,290.0,WeatherDisplay:10.37,2013-03-11 18:05:00,
2013-03-11 14:10:00,45.4,33.5,29.95,East,86,5.0,5.0,63,0.00,OVC,,0.00,355.0,WeatherDisplay:10.37,2013-03-11 18:10:00,
2013-03-11 14:15:00,45.6,33.3,29.95,East,79,4.0,4.0,62,0.00,OVC,,0.00,325.0,WeatherDisplay:10.37,2013-03-11 18:15:00,
2013-03-11 14:20:00,45.7,33.4,29.96,East,98,6.9,6.9,62,0.00,OVC,,0.00,269.0,WeatherDisplay:10.37,2013-03-11 18:20:00,
2013-03-11 14:25:00,45.6,33.3,29.95,East,99,11.5,11.5,62,0.00,OVC,,0.00,220.0,WeatherDisplay:10.37,2013-03-11 18:25:00,
2013-03-11 14:30:00,45.3,33.4,29.94,ENE,77,11.0,11.0,63,0.00,OVC,,0.00,193.0,WeatherDisplay:10.37,2013-03-11 18:30:00,
2013-03-11 14:35:00,45.0,33.5,29.93,SE,126,11.5,11.5,64,0.00,OVC,,0.00,171.0,WeatherDisplay:10.37,2013-03-11 18:35:00,
2013-03-11 14:40:00,44.6,33.6,29.93,ESE,111,9.2,9.2,65,0.00,OVC,,0.00,156.0,WeatherDisplay:10.37,2013-03-11 18:40:00,
2013-03-11 14:45:00,44.1,33.5,29.93,ENE,69,9.2,9.2,66,0.00,OVC,,0.00,169.0,WeatherDisplay:10.37,2013-03-11 18:45:00,
2013-03-11 14:50:00,44.0,33.4,29.92,East,101,9.2,9.2,66,0.00,OVC,,0.00,167.0,WeatherDisplay:10.37,2013-03-11 18:50:00,
2013-03-11 14:55:00,44.1,33.5,29.93,East,92,5.8,5.8,66,0.00,OVC,,0.00,178.0,WeatherDisplay:10.37,2013-03-11 18:55:00,
2013-03-11 15:00:00,44.3,33.7,29.93,East,89,2.3,2.3,66,0.00,OVC,,0.00,186.0,WeatherDisplay:10.37,2013-03-11 19:00:00,
2013-03-11 15:05:00,44.7,33.6,29.93,East,80,3.5,3.5,65,0.00,OVC,,0.00,204.0,WeatherDisplay:10.37,2013-03-11 19:05:00,
2013-03-11 15:10:00,45.0,33.5,29.93,East,80,2.3,2.3,64,0.00,OVC,,0.00,199.0,WeatherDisplay:10.37,2013-03-11 19:10:00,
2013-03-11 15:15:00,45.2,33.3,29.93,ESE,102,4.6,4.6,63,0.00,OVC,,0.00,183.0,WeatherDisplay:10.37,2013-03-11 19:15:00,
2013-03-11 15:20:00,45.4,33.5,29.94,East,101,2.3,2.3,63,0.00,OVC,,0.00,167.0,WeatherDisplay:10.37,2013-03-11 19:20:00,
2013-03-11 15:25:00,45.6,33.7,29.94,East,101,2.3,2.3,63,0.00,OVC,,0.00,153.0,WeatherDisplay:10.37,2013-03-11 19:25:00,
2013-03-11 15:30:00,45.8,33.5,29.94,East,101,4.0,4.0,62,0.00,OVC,,0.00,132.0,WeatherDisplay:10.37,2013-03-11 19:30:00,
2013-03-11 15:35:00,45.9,33.6,29.93,East,81,3.5,3.5,62,0.00,OVC,,0.00,137.0,WeatherDisplay:10.37,2013-03-11 19:35:00,
2013-03-11 15:40:00,45.9,33.6,29.93,ENE,78,4.0,4.3,62,0.00,OVC,,0.00,148.0,WeatherDisplay:10.37,2013-03-11 19:40:00,
2013-03-11 15:45:00,45.8,33.5,29.94,ENE,78,2.0,2.0,62,0.00,OVC,,0.00,135.0,WeatherDisplay:10.37,2013-03-11 19:45:00,
2013-03-11 15:50:00,45.6,33.3,29.94,East,87,4.6,4.6,62,0.00,OVC,,0.00,134.0,WeatherDisplay:10.37,2013-03-11 19:50:00,
2013-03-11 15:55:00,45.4,33.5,29.93,East,91,4.6,4.6,63,0.00,OVC,,0.00,132.0,WeatherDisplay:10.37,2013-03-11 19:55:00,
2013-03-11 16:00:00,45.2,33.3,29.93,ENE,68,6.0,6.0,63,0.00,OVC,,0.00,130.0,WeatherDisplay:10.37,2013-03-11 20:00:00,
2013-03-11 16:05:00,45.1,33.2,29.92,ENE,61,5.8,5.8,63,0.00,OVC,,0.00,127.0,WeatherDisplay:10.37,2013-03-11 20:05:00,
2013-03-11 16:10:00,45.0,33.5,29.91,East,92,6.9,6.9,64,0.00,OVC,,0.00,135.0,WeatherDisplay:10.37,2013-03-11 20:10:00,
2013-03-11 16:15:00,44.8,33.4,29.91,East,94,6.9,6.9,64,0.00,OVC,,0.00,146.0,WeatherDisplay:10.37,2013-03-11 20:15:00,
2013-03-11 16:20:00,44.6,33.2,29.89,ENE,78,11.5,11.5,64,0.00,OVC,,0.00,142.0,WeatherDisplay:10.37,2013-03-11 20:20:00,
2013-03-11 16:25:00,44.5,33.1,29.89,East,80,8.1,8.1,64,0.00,OVC,,0.00,132.0,WeatherDisplay:10.37,2013-03-11 20:25:00,
2013-03-11 16:30:00,44.3,33.3,29.89,ESE,115,11.5,11.5,65,0.00,OVC,,0.00,118.0,WeatherDisplay:10.37,2013-03-11 20:30:00,
2013-03-11 16:35:00,44.0,33.0,29.89,East,88,9.2,9.2,65,0.00,OVC,,0.00,116.0,WeatherDisplay:10.37,2013-03-11 20:35:00,
2013-03-11 16:40:00,43.8,33.2,29.89,East,80,10.4,10.4,66,0.00,OVC,,0.00,109.0,WeatherDisplay:10.37,2013-03-11 20:40:00,
2013-03-11 16:45:00,43.4,32.8,29.89,East,92,8.1,8.1,66,0.00,OVC,,0.00,113.0,WeatherDisplay:10.37,2013-03-11 20:45:00,
2013-03-11 16:50:00,43.2,32.6,29.89,East,93,5.8,5.8,66,0.00,OVC,,0.00,102.0,WeatherDisplay:10.37,2013-03-11 20:50:00,
2013-03-11 16:55:00,43.1,32.9,29.89,ESE,105,6.9,6.9,67,0.00,OVC,,0.00,95.0,WeatherDisplay:10.37,2013-03-11 20:55:00,
2013-03-11 17:00:00,42.9,32.7,29.88,East,96,5.8,5.8,67,0.00,OVC,,0.00,109.0,WeatherDisplay:10.37,2013-03-11 21:00:00,
2013-03-11 17:05:00,42.8,32.6,29.89,East,95,6.0,6.0,67,0.00,OVC,,0.00,146.0,WeatherDisplay:10.37,2013-03-11 21:05:00,
2013-03-11 17:10:00,42.7,32.9,29.88,East,83,5.0,5.0,68,0.00,OVC,,0.00,176.0,WeatherDisplay:10.37,2013-03-11 21:10:00,
2013-03-11 17:15:00,42.9,32.7,29.88,East,89,8.1,8.1,67,0.00,OVC,,0.00,127.0,WeatherDisplay:10.37,2013-03-11 21:15:00,
2013-03-11 17:20:00,42.9,32.7,29.87,ESE,102,6.9,6.9,67,0.00,OVC,,0.00,109.0,WeatherDisplay:10.37,2013-03-11 21:20:00,
2013-03-11 17:25:00,43.0,32.8,29.87,East,86,5.8,5.8,67,0.00,OVC,,0.00,107.0,WeatherDisplay:10.37,2013-03-11 21:25:00,
2013-03-11 17:30:00,43.1,32.9,29.87,ESE,114,6.9,6.9,67,0.00,OVC,,0.00,95.0,WeatherDisplay:10.37,2013-03-11 21:30:00,
2013-03-11 17:35:00,43.0,32.8,29.87,East,89,6.9,6.9,67,0.00,OVC,,0.00,97.0,WeatherDisplay:10.37,2013-03-11 21:35:00,
2013-03-11 17:40:00,42.9,32.7,29.87,ESE,108,6.0,6.0,67,0.00,OVC,,0.00,74.0,WeatherDisplay:10.37,2013-03-11 21:40:00,
2013-03-11 17:45:00,42.8,33.0,29.88,ESE,102,5.0,5.0,68,0.00,OVC,,0.00,63.0,WeatherDisplay:10.37,2013-03-11 21:45:00,
2013-03-11 17:50:00,42.7,32.9,29.87,East,90,5.0,5.0,68,0.00,OVC,,0.00,56.0,WeatherDisplay:10.37,2013-03-11 21:50:00,
2013-03-11 17:55:00,42.7,32.9,29.86,East,80,4.6,4.6,68,0.00,OVC,,0.00,60.0,WeatherDisplay:10.37,2013-03-11 21:55:00,
2013-03-11 18:00:00,42.7,32.9,29.86,East,90,8.1,8.1,68,0.00,OVC,,0.00,58.0,WeatherDisplay:10.37,2013-03-11 22:00:00,
2013-03-11 18:05:00,42.6,33.1,29.85,ESE,115,10.4,10.4,69,0.00,OVC,,0.00,40.0,WeatherDisplay:10.37,2013-03-11 22:05:00,
2013-03-11 18:10:00,42.5,33.0,29.85,East,94,4.6,4.6,69,0.00,OVC,,0.00,25.0,WeatherDisplay:10.37,2013-03-11 22:10:00,
2013-03-11 18:15:00,42.4,32.9,29.85,East,81,5.8,5.8,69,0.00,OVC,,0.00,16.0,WeatherDisplay:10.37,2013-03-11 22:15:00,
2013-03-11 18:20:00,42.2,32.8,29.85,East,95,6.0,6.0,69,0.00,OVC,,0.00,14.0,WeatherDisplay:10.37,2013-03-11 22:20:00,
2013-03-11 18:25:00,42.2,32.8,29.85,East,98,6.9,6.9,69,0.00,OVC,,0.00,11.0,WeatherDisplay:10.37,2013-03-11 22:25:00,
2013-03-11 18:30:00,42.2,32.8,29.85,East,94,4.6,4.6,69,0.00,OVC,,0.00,9.0,WeatherDisplay:10.37,2013-03-11 22:30:00,
2013-03-11 18:35:00,42.2,32.8,29.85,ENE,72,4.6,4.6,69,0.00,OVC,,0.00,7.0,WeatherDisplay:10.37,2013-03-11 22:35:00,
2013-03-11 18:40:00,42.2,32.8,29.86,ENE,72,1.0,1.0,69,0.00,OVC,,0.00,0.0,WeatherDisplay:10.37,2013-03-11 22:40:00,
2013-03-11 18:45:00,42.2,32.8,29.86,ENE,72,3.5,3.5,69,0.00,OVC,,0.00,0.0,WeatherDisplay:10.37,2013-03-11 22:45:00,
2013-03-11 18:50:00,42.3,32.8,29.87,ENE,72,2.3,0.0,69,0.00,OVC,,0.00,0.0,WeatherDisplay:10.37,2013-03-11 22:50:00,
2013-03-11 18:55:00,42.3,32.8,29.88,ENE,72,2.3,2.3,69,0.00,OVC,,0.00,0.0,WeatherDisplay:10.37,2013-03-11 22:55:00,
2013-03-11 19:00:00,42.3,33.2,29.87,North,355,3.5,3.5,70,0.00,OVC,,0.00,0.0,WeatherDisplay:10.37,2013-03-11 23:00:00,
2013-03-11 19:05:00,42.2,33.1,29.87,North,355,1.2,1.2,70,0.00,OVC,,0.00,0.0,WeatherDisplay:10.37,2013-03-11 23:05:00,
2013-03-11 19:10:00,42.1,33.0,29.86,North,355,3.5,3.5,70,0.00,OVC,,0.00,0.0,WeatherDisplay:10.37,2013-03-11 23:10:00,
2013-03-11 19:15:00,42.0,32.9,29.85,North,355,2.3,2.3,70,0.00,OVC,,0.00,0.0,WeatherDisplay:10.37,2013-03-11 23:15:00,
2013-03-11 19:20:00,41.9,32.8,29.85,North,360,2.3,2.3,70,0.00,OVC,,0.00,0.0,WeatherDisplay:10.37,2013-03-11 23:20:00,
2013-03-11 19:25:00,41.9,32.8,29.85,NNE,19,3.5,3.5,70,0.00,OVC,,0.00,0.0,WeatherDisplay:10.37,2013-03-11 23:25:00,
2013-03-11 19:30:00,41.8,32.7,29.85,ENE,65,0.0,0.0,70,0.00,OVC,,0.00,0.0,WeatherDisplay:10.37,2013-03-11 23:30:00,
2013-03-11 19:35:00,41.7,32.6,29.85,ENE,65,2.3,2.3,70,0.00,OVC,,0.00,0.0,WeatherDisplay:10.37,2013-03-11 23:35:00,
2013-03-11 19:40:00,41.6,32.5,29.85,ENE,68,3.5,3.5,70,0.00,OVC,,0.00,0.0,WeatherDisplay:10.37,2013-03-11 23:40:00,
2013-03-11 19:45:00,41.6,32.5,29.84,ESE,102,5.0,5.0,70,0.00,OVC,,0.00,0.0,WeatherDisplay:10.37,2013-03-11 23:45:00,
2013-03-11 19:50:00,41.7,32.6,29.84,ESE,106,3.5,3.5,70,0.00,OVC,,0.00,0.0,WeatherDisplay:10.37,2013-03-11 23:50:00,
2013-03-11 19:55:00,41.7,32.6,29.84,ESE,105,2.0,5.0,70,0.00,OVC,,0.00,0.0,WeatherDisplay:10.37,2013-03-11 23:55:00,
2013-03-11 20:00:00,41.6,32.2,29.84,ESE,104,0.0,0.0,69,0.00,OVC,,0.00,0.0,WeatherDisplay:10.37,2013-03-12 00:00:00,
2013-03-11 20:05:00,41.5,32.4,29.84,ESE,104,0.0,0.0,70,0.00,OVC,,0.00,0.0,WeatherDisplay:10.37,2013-03-12 00:05:00,
2013-03-11 20:10:00,41.5,32.4,29.84,ESE,104,0.0,0.0,70,0.00,OVC,,0.00,0.0,WeatherDisplay:10.37,2013-03-12 00:10:00,
2013-03-11 20:15:00,41.5,32.4,29.84,ESE,104,0.0,0.0,70,0.00,OVC,,0.00,0.0,WeatherDisplay:10.37,2013-03-12 00:15:00,
2013-03-11 20:20:00,41.5,32.4,29.83,ESE,104,1.2,0.0,70,0.00,OVC,,0.00,0.0,WeatherDisplay:10.37,2013-03-12 00:20:00,
2013-03-11 20:25:00,41.4,32.3,29.83,ESE,102,0.0,5.0,70,0.00,OVC,,0.00,0.0,WeatherDisplay:10.37,2013-03-12 00:25:00,
2013-03-11 20:30:00,41.3,32.2,29.83,East,101,3.5,3.5,70,0.00,OVC,,0.00,0.0,WeatherDisplay:10.37,2013-03-12 00:30:00,
2013-03-11 20:35:00,41.1,32.4,29.83,ESE,107,5.8,5.8,71,0.00,OVC,,0.00,0.0,WeatherDisplay:10.37,2013-03-12 00:35:00,
2013-03-11 20:40:00,41.1,32.1,29.83,ESE,109,4.6,4.6,70,0.00,OVC,,0.00,0.0,WeatherDisplay:10.37,2013-03-12 00:40:00,
2013-03-11 20:45:00,41.3,31.9,29.83,ESE,109,1.2,0.0,69,0.00,OVC,,0.00,0.0,WeatherDisplay:10.37,2013-03-12 00:45:00,
2013-03-11 20:50:00,41.6,32.2,29.83,ESE,109,1.2,0.0,69,0.00,OVC,,0.00,0.0,WeatherDisplay:10.37,2013-03-12 00:50:00,
2013-03-11 20:55:00,41.8,32.4,29.82,East,100,4.6,4.6,69,0.00,OVC,,0.00,0.0,WeatherDisplay:10.37,2013-03-12 00:55:00,
2013-03-11 21:00:00,41.9,32.5,29.82,East,96,0.0,0.0,69,0.00,OVC,,0.00,0.0,WeatherDisplay:10.37,2013-03-12 01:00:00,
2013-03-11 21:05:00,41.9,32.1,29.82,East,96,1.2,1.2,68,0.00,OVC,,0.00,0.0,WeatherDisplay:10.37,2013-03-12 01:05:00,
2013-03-11 21:10:00,41.9,32.5,29.82,East,96,0.0,0.0,69,0.00,OVC,,0.00,0.0,WeatherDisplay:10.37,2013-03-12 01:10:00,
2013-03-11 21:15:00,41.9,32.1,29.82,East,96,3.5,3.5,68,0.00,OVC,,0.00,0.0,WeatherDisplay:10.37,2013-03-12 01:15:00,
2013-03-11 21:20:00,41.9,32.1,29.82,East,94,2.0,2.0,68,0.00,OVC,,0.00,0.0,WeatherDisplay:10.37,2013-03-12 01:20:00,
2013-03-11 21:25:00,42.0,32.2,29.82,East,96,5.8,5.8,68,0.00,OVC,,0.00,0.0,WeatherDisplay:10.37,2013-03-12 01:25:00,
2013-03-11 21:30:00,42.1,32.3,29.81,ESE,114,6.9,6.9,68,0.00,OVC,,0.00,0.0,WeatherDisplay:10.37,2013-03-12 01:30:00,
2013-03-11 21:35:00,42.3,32.5,29.81,ESE,113,2.0,9.0,68,0.00,OVC,,0.00,0.0,WeatherDisplay:10.37,2013-03-12 01:35:00,
2013-03-11 21:40:00,42.5,32.3,29.82,SE,130,1.2,0.0,67,0.00,OVC,,0.00,0.0,WeatherDisplay:10.37,2013-03-12 01:40:00,
2013-03-11 21:45:00,42.6,32.4,29.82,SE,129,2.0,6.0,67,0.00,OVC,,0.00,0.0,WeatherDisplay:10.37,2013-03-12 01:45:00,
2013-03-11 21:50:00,42.7,32.5,29.82,SE,126,4.6,4.6,67,0.00,OVC,,0.00,0.0,WeatherDisplay:10.37,2013-03-12 01:50:00,
2013-03-11 21:55:00,42.7,32.5,29.82,East,85,3.5,3.5,67,0.00,OVC,,0.00,0.0,WeatherDisplay:10.37,2013-03-12 01:55:00,
2013-03-11 22:00:00,42.7,32.5,29.82,East,85,3.5,3.5,67,0.00,OVC,,0.00,0.0,WeatherDisplay:10.37,2013-03-12 02:00:00,
2013-03-11 22:05:00,42.8,32.6,29.83,East,86,0.0,0.0,67,0.00,OVC,,0.00,0.0,WeatherDisplay:10.37,2013-03-12 02:05:00,
2013-03-11 22:10:00,42.8,32.6,29.83,East,86,0.0,0.0,67,0.00,OVC,,0.00,0.0,WeatherDisplay:10.37,2013-03-12 02:10:00,
2013-03-11 22:15:00,42.8,32.6,29.83,East,86,2.0,2.0,67,0.00,OVC,,0.00,0.0,WeatherDisplay:10.37,2013-03-12 02:15:00,
2013-03-11 22:20:00,42.7,32.5,29.83,East,86,1.2,1.2,67,0.00,OVC,,0.00,0.0,WeatherDisplay:10.37,2013-03-12 02:20:00,
2013-03-11 22:25:00,42.4,32.6,29.83,East,87,2.3,2.3,68,0.00,OVC,,0.00,0.0,WeatherDisplay:10.37,2013-03-12 02:25:00,
2013-03-11 22:30:00,42.2,32.4,29.83,East,87,0.0,0.0,68,0.00,OVC,,0.00,0.0,WeatherDisplay:10.37,2013-03-12 02:30:00,
2013-03-11 22:35:00,42.1,32.7,29.83,East,87,0.0,0.0,69,0.00,OVC,,0.00,0.0,WeatherDisplay:10.37,2013-03-12 02:35:00,
2013-03-11 22:40:00,42.0,32.9,29.83,East,87,2.3,2.3,70,0.00,OVC,,0.00,0.0,WeatherDisplay:10.37,2013-03-12 02:40:00,
2013-03-11 22:45:00,41.7,32.7,29.83,East,87,0.0,3.0,70,0.00,OVC,,0.00,0.0,WeatherDisplay:10.37,2013-03-12 02:45:00,
2013-03-11 22:50:00,41.6,32.9,29.83,East,87,2.0,2.0,71,0.00,OVC,,0.00,0.0,WeatherDisplay:10.37,2013-03-12 02:50:00,
2013-03-11 22:55:00,41.5,33.1,29.83,East,87,2.3,2.3,72,0.00,OVC,,0.00,0.0,WeatherDisplay:10.37,2013-03-12 02:55:00,
2013-03-11 23:00:00,41.3,33.3,29.83,East,87,2.3,2.3,73,0.00,OVC,,0.00,0.0,WeatherDisplay:10.37,2013-03-12 03:00:00,
2013-03-11 23:05:00,41.1,33.4,29.83,East,88,2.3,2.3,74,0.00,OVC,,0.00,0.0,WeatherDisplay:10.37,2013-03-12 03:05:00,
2013-03-11 23:10:00,40.9,33.6,29.83,East,88,4.0,4.0,75,0.00,OVC,,0.00,0.0,WeatherDisplay:10.37,2013-03-12 03:10:00,
2013-03-11 23:15:00,40.6,33.3,29.83,East,88,3.5,3.5,75,0.00,OVC,,0.00,0.0,WeatherDisplay:10.37,2013-03-12 03:15:00,
2013-03-11 23:20:00,40.5,33.2,29.83,East,88,0.0,0.0,75,0.00,-RA,,0.00,0.0,WeatherDisplay:10.37,2013-03-12 03:20:00,
2013-03-11 23:25:00,40.5,33.2,29.83,East,88,0.0,0.0,75,0.00,-RA,,0.00,0.0,WeatherDisplay:10.37,2013-03-12 03:25:00,
2013-03-11 23:30:00,40.5,33.2,29.82,East,88,1.2,0.0,75,0.00,-RA,,0.00,0.0,WeatherDisplay:10.37,2013-03-12 03:30:00,
2013-03-11 23:35:00,40.5,33.2,29.83,East,88,2.3,2.3,75,0.00,-RA,,0.00,0.0,WeatherDisplay:10.37,2013-03-12 03:35:00,
2013-03-11 23:40:00,40.4,33.4,29.82,East,88,2.3,2.3,76,0.00,-RA,,0.00,0.0,WeatherDisplay:10.37,2013-03-12 03:40:00,
2013-03-11 23:45:00,40.3,33.3,29.82,East,94,4.0,4.0,76,0.00,-RA,,0.00,0.0,WeatherDisplay:10.37,2013-03-12 03:45:00,
2013-03-11 23:50:00,40.2,32.9,29.82,East,96,3.5,3.5,75,0.00,-RA,,0.00,0.0,WeatherDisplay:10.37,2013-03-12 03:50:00,
2013-03-11 23:55:00,40.2,33.2,29.82,East,84,4.6,4.6,76,0.00,-RA,,0.00,0.0,WeatherDisplay:10.37,2013-03-12 03:55:00,